Vorticity
nan nan nan nan nan nan nan nan nan nan nan nan nan nan nan nan nan nan nan nan nan nan nan nan nan nan nan nan nan nan nan nan nan nan nan nan nan nan nan nan nan nan nan nan nan nan nan nan nan
nan 2 2 6 7 6 5 3 10 16 17 6 1 6 1 5 10 15 14 12 4 4 6 6 6 6 6 5 5 5 4 6 6 6 5 6 7 7 5 6 7 6 5 6 6 6 6 6 nan
nan 1 6 5 7 7 2 1 14 21 11 -1 -0 3 7 5 17 10 9 10 3 4 6 8 8 7 5 5 4 5 6 5 5 6 6 6 6 8 7 7 7 6 6 6 6 5 4 5 nan
nan 5 6 6 7 6 4 11 18 7 -4 5 5 4 8 12 12 10 12 4 4 5 5 8 9 8 4 4 4 4 6 6 6 6 7 6 6 6 9 9 8 8 6 5 6 5 4 4 nan
nan 6 6 7 8 7 5 11 14 3 -2 3 6 8 5 12 16 15 5 5 4 5 5 6 8 7 5 6 5 5 5 6 5 7 8 7 6 6 8 8 6 7 7 6 5 5 6 7 nan
nan 5 7 9 7 5 3 7 9 5 8 6 9 7 8 15 12 5 6 6 5 5 5 5 5 6 7 6 5 6 5 6 6 7 6 7 7 6 7 7 7 6 6 5 5 5 9 12 nan
nan 7 7 7 6 7 3 5 7 11 9 10 6 3 10 10 7 6 6 6 6 4 5 6 6 6 5 6 7 7 7 5 6 6 6 6 7 7 7 7 6 7 7 6 5 5 9 9 nan
nan 7 8 7 6 10 8 5 3 4 8 10 7 6 13 11 6 6 6 6 6 5 5 6 7 7 7 8 8 7 7 5 6 6 6 6 5 5 6 6 6 7 7 6 5 6 8 8 nan
nan 7 6 8 12 11 8 5 6 8 9 8 13 15 18 12 4 4 4 5 5 5 6 6 6 6 7 7 7 7 6 7 5 5 5 4 5 7 4 5 9 8 7 6 6 5 4 7 nan
nan 7 5 10 17 12 6 6 8 11 6 5 15 19 14 7 4 3 4 5 5 5 5 5 6 6 5 7 7 5 4 4 5 7 5 6 7 5 7 6 4 5 6 3 3 4 4 6 nan
nan 4 6 10 13 8 5 7 7 8 7 11 13 9 6 5 4 4 5 5 5 4 4 6 5 6 5 5 5 6 6 5 5 7 7 6 6 6 6 6 4 3 5 6 5 3 3 6 nan
nan 6 7 10 7 5 8 5 6 4 10 23 18 7 6 5 4 4 5 6 5 5 5 5 5 6 6 5 7 7 7 6 7 5 7 7 7 7 6 7 6 6 6 7 7 6 6 5 nan
nan 5 10 12 6 4 4 4 7 7 15 19 12 7 4 4 5 6 5 5 5 7 7 6 5 5 6 6 7 7 7 7 7 6 6 8 8 7 7 7 7 6 6 7 7 6 6 6 nan
nan 5 15 14 7 5 2 6 7 11 12 11 7 6 4 5 4 4 6 6 5 6 8 6 6 6 5 6 6 6 7 7 6 7 6 7 7 8 8 7 6 6 6 7 7 7 7 6 nan
nan 12 14 13 7 5 6 6 12 14 8 8 6 5 6 6 6 5 6 6 6 6 7 7 6 6 5 6 6 6 7 6 6 7 7 6 7 7 7 6 6 7 8 8 8 8 8 7 nan
nan 11 8 15 7 7 5 8 18 12 8 8 6 5 6 7 4 5 6 7 7 7 7 6 7 7 6 6 6 6 7 6 6 8 9 8 8 7 7 7 8 8 8 8 7 7 7 7 nan
nan 11 9 14 8 6 6 5 17 11 8 8 7 7 6 6 6 6 6 7 7 7 7 7 7 7 7 6 6 7 6 6 6 8 9 9 8 8 7 9 9 7 7 7 8 7 8 7 nan
nan 7 7 13 10 6 8 2 10 12 8 8 7 7 7 7 7 6 5 7 8 8 7 8 7 7 6 6 7 7 6 8 8 7 9 9 8 9 8 9 9 7 6 6 7 7 7 7 nan
nan 7 6 9 13 7 6 11 10 10 10 10 10 8 7 7 8 6 6 7 7 8 8 8 6 6 5 6 7 8 9 9 9 9 9 8 8 9 8 8 9 8 7 7 8 7 7 8 nan
nan 5 4 7 11 11 7 10 16 16 11 12 11 9 8 7 7 8 7 7 7 7 6 6 7 6 5 5 7 11 12 10 10 11 8 9 9 9 10 8 8 8 7 8 5 6 6 7 nan
nan 6 5 5 6 12 8 8 12 12 13 13 13 10 10 8 6 7 7 6 7 6 7 6 7 6 6 5 5 7 8 9 9 9 9 9 10 9 10 7 9 9 7 9 8 6 7 7 nan
nan 7 5 6 8 6 9 6 5 13 16 11 13 11 10 8 7 7 7 6 8 7 7 7 8 7 7 7 5 5 4 5 8 8 9 9 9 10 8 7 7 8 9 10 8 7 8 8 nan
nan 14 10 9 9 8 11 -0 5 12 7 14 15 12 10 11 11 8 7 6 6 8 8 8 7 8 8 6 5 5 6 6 8 10 8 7 8 8 9 9 8 7 8 7 7 7 7 7 nan
nan 3 10 11 11 9 6 9 6 5 4 10 12 19 19 10 10 10 9 8 7 8 8 9 8 8 8 7 7 5 6 6 6 7 6 8 8 8 8 8 8 8 9 7 7 8 8 7 nan
nan 3 5 8 7 8 6 10 6 6 9 11 10 11 16 21 15 10 10 8 9 9 8 9 9 9 8 7 7 7 6 7 6 5 7 8 7 8 9 7 7 8 9 8 9 9 8 7 nan
nan 5 9 14 8 4 10 9 1 6 7 10 11 13 17 20 23 17 10 9 9 9 8 8 8 9 9 8 8 8 7 5 8 7 7 8 8 9 9 8 7 9 9 9 8 7 8 8 nan
nan 9 8 10 15 10 7 9 3 -2 6 8 9 11 12 27 35 20 12 11 10 10 9 6 6 8 10 7 7 8 8 7 7 8 7 7 8 10 10 8 8 8 8 8 7 8 9 7 nan
nan 17 11 9 13 6 4 5 2 2 5 7 9 10 12 19 32 31 21 14 10 11 11 10 8 8 8 7 6 8 8 8 7 8 7 6 7 9 10 8 8 8 8 7 7 8 9 7 nan
nan 9 8 7 12 16 5 3 3 9 7 6 9 10 11 12 14 15 24 31 24 15 10 9 9 9 8 9 9 8 9 9 8 8 7 7 7 9 8 8 8 8 8 9 6 6 8 8 nan
nan nan nan nan nan nan nan nan nan nan nan nan nan nan nan nan nan nan nan nan nan nan nan nan nan nan nan nan nan nan nan nan nan nan nan nan nan nan nan nan nan nan nan nan nan nan nan nan nan
CAPE
87 1 0 66 103 114 34 70 62 0 0 0 0 0 0 0 55 43 0 0 1 266 880 868 1804 1849 2005 2055 1918 1806 1726 2211 1993 1732 1720 1638 1595 1804 2334 2263 2296 2474 2350 2451 2444 2294 2211 2314 2470
36 0 3 253 46 70 49 124 181 26 0 0 0 0 241 224 24 0 0 0 39 356 886 1086 2213 2217 1980 2118 1903 1680 1868 2235 2040 2073 2084 1527 1601 1700 1647 2007 2008 2000 2226 2314 2405 2099 2035 2141 2236
4 3 246 215 27 73 117 110 146 0 0 1 188 169 271 194 0 0 0 17 195 722 1087 1497 1911 2228 1990 2078 1993 1750 2034 1962 1943 1968 1932 1459 1418 1556 1485 1571 1853 1768 2061 2315 2249 2144 2064 1993 1884
3 50 258 312 128 9 6 177 7 0 11 238 207 113 0 0 0 0 0 82 412 887 1096 1848 2165 2164 2018 2079 2031 1732 2128 2000 1765 1843 1772 1769 1165 1695 1486 1595 1742 1863 2024 2120 1994 2026 1957 1922 1994
85 345 170 170 18 21 99 368 7 0 13 203 176 11 0 72 0 0 14 139 386 656 1154 1693 2477 2365 2046 1890 2025 1820 1941 1886 1717 1818 1687 1724 1353 1621 1599 1789 1735 1769 1908 1894 1901 1891 2028 1917 2021
420 325 139 228 40 21 133 138 266 184 124 64 6 0 18 108 0 0 34 177 334 668 962 1120 1823 1955 2110 2073 1689 1695 1915 1643 1969 1853 1868 1786 1736 1731 1662 1571 1527 1450 1596 1808 1773 2069 2189 2222 2121
211 259 170 81 101 39 47 100 381 386 102 81 40 35 76 12 0 15 158 366 462 766 1019 1180 1396 1742 1801 1727 1771 1687 1949 1732 1866 1801 1897 1763 1722 1741 1822 1668 1785 1517 1573 1440 1821 2066 2169 2364 2363
242 219 56 43 129 117 8 141 155 433 75 62 45 20 18 25 39 89 294 511 597 671 979 1571 1761 1778 1630 1836 1743 1734 1834 1839 1855 1815 1754 1823 1807 1823 1569 1665 1760 1515 1435 1711 1752 1895 2095 2198 2477
10 57 21 3 84 107 61 131 132 213 147 317 113 16 5 26 60 135 363 530 661 766 949 1195 1510 1588 1631 1477 1677 1709 1855 1883 1902 1692 1807 1989 1856 1785 1627 1800 1782 1567 1438 1548 1425 1822 2165 2206 2343
48 62 13 56 49 46 79 70 239 259 184 118 80 63 7 47 57 124 260 397 448 753 1138 1300 1424 1454 1618 1571 1808 1917 1944 1934 2040 1989 2100 2214 2099 1825 1677 1844 1873 1829 1407 1509 1650 1926 1404 1347 1801
50 78 12 146 95 65 61 117 168 257 223 143 103 42 1 25 42 98 167 254 485 771 1070 1195 1296 1183 1359 1516 1741 1807 1782 1809 2201 2025 1847 2002 1972 2002 1956 2183 1942 1730 1136 1389 785 869 1226 1649 1712
0 0 17 136 136 78 12 121 97 120 274 148 105 0 0 16 57 98 121 124 236 630 835 861 1029 901 1373 1851 1481 1513 1432 1511 1412 1504 1319 1971 1724 1941 2200 2022 2174 2022 792 879 1121 949 1560 1683 1907
0 0 0 60 190 63 88 153 23 170 252 91 52 0 0 24 82 82 54 50 85 202 505 715 655 1043 1346 1639 1452 1408 1283 1315 1450 971 1061 1460 1466 1753 1900 2057 1734 1699 1263 830 1254 1449 1625 1813 1885
0 0 0 112 205 68 141 185 219 289 281 127 40 1 40 140 154 135 67 48 104 249 457 692 379 1116 1345 1384 1536 1465 1282 1356 1166 883 1349 1203 1205 1307 1291 1535 1431 1516 1361 1212 1605 1698 1764 1934 1792
0 0 0 0 80 216 180 75 133 367 346 132 155 104 107 136 142 175 144 110 75 218 477 550 341 745 1148 1230 1333 1231 1156 1194 1394 1559 1430 1550 1218 1128 1399 1062 1008 1292 1190 1036 1564 1665 1750 1594 1226
0 0 0 120 76 121 296 124 261 586 629 293 232 178 161 182 182 181 183 59 20 0 407 395 163 538 913 1028 1132 1060 1213 1434 1603 1730 1519 1535 1443 1332 1129 1401 1188 1204 847 1328 1355 1520 1322 1303 1238
0 0 0 130 195 349 347 191 619 625 577 375 168 198 170 186 204 245 251 130 0 26 323 299 342 689 840 1044 831 1064 1410 1485 1676 1666 1511 1116 1391 1305 756 1098 1421 981 994 1276 1407 1481 1248 1335 1198
0 0 0 0 280 472 300 263 550 690 650 441 338 198 179 152 184 258 275 262 92 56 254 328 402 808 1084 1004 960 1082 1470 1542 1625 1677 1623 1196 1460 1521 1191 999 1384 1148 826 1143 1462 1576 1368 1338 1135
0 0 0 0 18 386 60 81 320 672 665 810 451 350 227 150 140 215 293 271 205 97 163 426 579 966 1058 1012 926 1121 1393 1601 1983 1666 1619 1356 1100 1765 1818 1395 1284 1246 1091 1133 1707 1399 1457 1282 1202
0 0 0 0 0 20 0 0 220 502 823 853 710 425 329 241 156 166 240 208 226 187 146 469 619 988 1108 1086 1283 1433 1651 1662 1727 1674 1677 1240 1484 2128 2155 1663 1627 1570 1325 2019 1759 1725 1299 1540 1047
0 0 0 0 0 129 149 125 415 446 741 836 770 621 457 396 287 190 217 150 221 271 263 429 710 843 1068 1096 1287 1386 1526 1571 1621 1685 1582 1943 1324 1766 2080 1735 1751 2031 1729 1631 2053 1815 1712 1109 1122
0 0 0 0 0 0 17 0 177 398 507 714 767 640 506 466 381 279 209 146 146 286 336 482 695 822 924 1155 1258 1568 1369 2076 1404 1691 1662 1697 2108 1943 1759 1948 1680 1747 1571 1790 1773 1616 1536 1196 880
0 0 0 0 0 0 0 0 0 542 250 47 386 762 620 329 374 382 222 223 193 227 306 419 692 815 868 1040 1343 1537 1552 1396 1418 1505 1916 1919 2346 2211 1553 2176 1853 1701 1508 1990 1878 2087 1916 1536 1253
0 0 0 0 0 0 0 0 0 0 1 4 16 62 521 531 251 351 311 210 222 243 302 330 659 1107 911 1005 1101 1433 1636 1477 1431 1469 1552 1622 2494 2184 2310 1921 2114 2191 1811 1965 1949 2376 2237 2032 2376
0 0 0 0 0 0 0 0 4 7 7 4 17 32 34 153 542 420 330 208 197 275 329 352 679 1143 993 886 1023 1058 1343 1699 1822 1947 1563 1585 1666 1870 2456 2229 2253 2205 2403 2192 1998 2370 2457 2298 2348
0 0 0 0 0 0 0 0 7 2 4 5 5 13 15 44 100 619 422 342 167 370 436 371 781 1123 831 849 1164 1331 1131 1001 1214 1716 1349 1409 1464 1703 2384 2519 2347 2160 2147 2085 2173 2086 2168 2323 2254
0 0 0 0 0 0 0 0 0 0 0 3 1 0 0 242 48 346 613 383 256 377 589 572 869 1097 889 835 1293 1056 1185 1012 1112 1572 1795 1463 1788 1690 2133 2354 2403 2154 2345 2262 2402 2004 2504 2530 2680
0 0 0 0 0 0 0 0 3 4 7 1 2 7 3 12 214 111 575 473 273 329 492 531 682 993 1196 840 1081 855 794 834 878 1268 1578 1562 1709 1862 1944 2187 2233 2288 2354 2485 2502 2222 2296 2441 2339
0 0 0 0 0 0 0 2 16 21 16 4 0 1 9 10 3 159 496 646 253 253 431 478 523 661 772 766 1055 1115 810 660 768 716 1215 1553 1781 1983 2125 2301 2323 2362 2424 2547 2573 2364 2148 2331 2444
0 0 0 0 0 0 0 1 27 15 9 16 2 0 1 4 7 6 13 8 248 233 267 432 383 503 593 893 1146 877 936 807 669 655 640 1072 1549 1945 2129 2146 2164 2180 2297 2515 2464 2215 1912 2145 2155